User: anonymous   Login
Location: Unspecified
(0.0000°N, 0.0000°E)
Time: 05:54:25
(UTC+00:00)
Language:

AO-7 - Orbit

View from above orbital plane
View from above orbital plane
View from above satellite
View from above satellite

Ground track
Ground track

The orbit data is extracted from the following two-line orbital elements,

1 07530U 74089B   21205.45020894 -.00000044  00000-0  10373-4 0  9992
2 07530 101.8560 179.9174 0011995 313.0298 162.8054 12.53649562136365
Epoch (UTC): 24 July 2021 10:48:18
Eccentricity: 0.0011995
inclination: 101.8560°
perigee height: 1440 km
apogee height: 1458 km
right ascension of ascending node: 179.9174°
argument of perigee: 313.0298°
revolutions per day: 12.53649562
mean anomaly at epoch: 162.8054°
orbit number at epoch: 13636

The dashed part of the orbit path shows where the satellite is in the earth's shadow,  

DLR